Tracking 29933 objects as of 2-Dec-2024
HD Live streaming from Space Station
objects crossing your sky now

STARLINK-30435

Track STARLINK-30435 now!
10-day predictions
STARLINK-30435 is classified as:


NORAD ID: 57842
Int'l Code: 2023-141C
Perigee: 481.8 km
Apogee: 482.9 km
Inclination: 53.2 °
Period: 94.1 minutes
Semi major axis: 6853 km
RCS: Unknown
Launch date: September 12, 2023
Source: United States (US)
Launch site: AIR FORCE WESTERN TEST RANGE (AFWTR)
Your satellite tracking list
Your tracking list is empty




NASA's NSSDC Master Catalog

Two Line Element Set (TLE):
1 57842U 23141C   24337.12007603  .00000374  00000-0  24751-4 0  9992
2 57842  53.1597 272.7541 0000796  96.2648 263.8444 15.30194567 69505
Source of the keplerian elements: AFSPC